Location: Unspecified
(51.5147°N, 7.4673°E)
Time: 17:54:57
(UTC+01:00)

Vanguard 1 - Pass Details

Date: 17 February 2026
Orbit: 653 x 3818 km, 34.2° (Epoch: 5 March)

Event Time Altitude Azimuth Distance (km) Brightness Sun altitude
Rises 18:18:55 0° 250° (WSW) 5,506 16.4 -5.4°
Reaches altitude 10° 18:22:12 10° 244° (WSW) 4,868 15.2 -5.8°
Maximum altitude 18:36:07 44° 179° (S) 3,977 13.2 -8.0°
Drops below altitude 10° 18:56:27 10° 117° (ESE) 6,913 13.9 -11.1°
Enters shadow 19:00:25 - 114° (ESE) 7,606 14.0 -11.7°
